Regional Weather Roundup
Issued by NWS

Home | Current Version | Previous Version | Graphics & Text | Print | Product List | Glossary On
Versions: 1 2 3 4 5 6 7 8 9 10 11 12 13 14 15 16 17 18 19 20 21 22 23 24 25 26 27 28 29 30 31 32 33 34 35 36 37 38 39 40 41 42 43 44 45 46 47 48 49 50
000
ASUS44 KMEG 221610
RWRTN
TENNESSEE HOURLY STATE WEATHER ROUNDUP
NATIONAL WEATHER SERVICE MEMPHIS TN
1100 AM CDT SUN APR 22 2018

TNZ002-004-019-021-049-052-054-088>092-221700-
WEST TENNESSEE

CITY           SKY/WX    TMP DP  RH WIND       PRES   REMARKS
MEMPHIS INTL   LGT RAIN  61  61 100 E13       29.92F
NWS MEMPHIS      N/A     59 N/A N/A MISG        N/A
JACKSON        RAIN      59  58  96 E8G20     30.00F FOG
DYERSBURG      LGT RAIN  55  54  94 NE8       30.02S FOG
SOMERVILLE     PTSUNNY   61  59  94 CALM      29.97S FOG
COVINGTON      CLOUDY    57  55  94 E6        29.99F FOG
UNION CITY     PTSUNNY   55  54  94 E7G13     30.06S FOG
BOLIVAR        CLOUDY    59  57  94 E7        29.99S FOG
PARIS          PTSUNNY   55  54  94 E9        30.08R FOG
HUNTINGDON     CLOUDY    57  55  94 E12       30.05F FOG
LEXINGTON      CLOUDY    59  57  94 VRB7G14   30.03F
SELMER         CLOUDY    59  57  94 E8        30.00S
SAVANNAH       CLOUDY    61  59  94 SE9G17    30.02S FOG
$$

TNZ008-025-027-028-033-062-065-066-221700-
NORTH MIDDLE TENNESSEE

CITY           SKY/WX    TMP DP  RH WIND       PRES   REMARKS
NASHVILLE      LGT RAIN  59  56  89 E10       30.13F FOG
PORTLAND       PTSUNNY   57  54  88 SE8       30.16S FOG
CLARKSVILLE    LGT RAIN  56  52  86 E8        30.11F FOG
SMYRNA         RAIN      59  57  93 SE7       30.15F
COOKEVILLE     SUNNY     59  52  77 S6        30.18F
LIVINGSTON     MOSUNNY   57  46  67 SE5       30.20S
GALLATIN       MOSUNNY   57  52  82 VRB6      30.19F HAZE
CROSSVILLE     LGT RAIN  57  45  64 SE9G18    30.22S
ROCKWOOD       PTSUNNY   59  37  44 VRB3      30.23S
$$

TNZ061-075-076-078-094-096-097-221700-
SOUTH MIDDLE TENNESSEE

CITY           SKY/WX    TMP DP  RH WIND       PRES   REMARKS
LEWISBURG      PTSUNNY   59  57  94 E9        30.10S FOG
FAYETTEVILLE   CLOUDY    59  57  94 SE12      30.10S
TULLAHOMA      CLOUDY    57  55  94 E12G21    30.12F FOG
WINCHESTER     PTSUNNY   57  55  94 SE10      30.13F FOG
MCMINNVILLE    MOSUNNY   59  55  88 SE6       30.17S FOG
COLUMBIA       CLOUDY    59  59 100 VRB3      30.09R FOG
SHELBYVILLE    PTSUNNY   57  55  94 SE9       30.13S FOG
$$

TNZ017-018-042-046-047-221700-
NORTHEAST TENNESSEE

CITY           SKY/WX    TMP DP  RH WIND       PRES   REMARKS
TRI CITIES     CLOUDY    66  44  45 E3        30.26F
ELIZABETHTON   FAIR      66  43  42 VRB5      30.26F
$$

TNZ012-013-036-069-073-074-221700-
CENTRAL EAST TENNESSEE

CITY           SKY/WX    TMP DP  RH WIND       PRES   REMARKS
KNOXVILLE      PTSUNNY   63  44  50 NE8       30.22F
OAK RIDGE      CLOUDY    62  44  51 VRB3      30.24F
DOWNTOWN KNOXV MOSUNNY   64  46  52 VRB5      30.23F
GATLINBURG     MOSUNNY   66  45  45 N5        30.22F
MORRISTOWN     SUNNY     66  45  45 E5        30.24S
JACKSBORO      PTSUNNY   61  41  48 CALM      30.28F
$$

TNZ083-085-099-221700-
SOUTHEAST TENNESSEE

CITY           SKY/WX    TMP DP  RH WIND       PRES   REMARKS
CHATTANOOGA    LGT RAIN  58  55  90 CALM      30.22R FOG
DAYTON         PTSUNNY   57  55  94 SW6       30.23R FOG
$$

SKY/WX REPORTED AS FAIR MEANS FEW OR NO CLOUDS BELOW
12 THOUSAND FEET.




USA.gov is the U.S. government's official web portal to all federal, state and local government web resources and services.